KE0TRL Weather Reports


time (UTC)temp
C
wind
direction
speed
KPH
gust
KPH
rain 1hr
cm
rain 24hr
cm
rain mn
cm
humidity
%
barometer
mb
20260904080702 27 248 6.4 8.0 0.00 0.00 0.00 68 1008.5
20260904075602 27 158 6.4 11.3 0.00 0.00 0.00 66 1008.1
20260904074402 27 113 8.0 8.0 0.00 0.00 0.00 66 1008.1
20260904073202 27 135 9.7 9.7 0.00 0.00 0.00 65 1008.5
20260904071003 27 113 4.8 17.7 0.00 0.00 0.00 65 1008.5
20260904065802 27 180 3.2 8.0 0.00 0.00 0.00 65 1008.5
20260904064702 27 23 11.3 12.9 0.00 0.00 0.00 65 1008.5
20260904062402 27 338 3.2 8.0 0.00 0.00 0.00 65 1008.8
20260904061302 28 23 6.4 6.4 0.00 0.00 0.00 65 1008.5
20260904055002 28 158 3.2 8.0 0.00 0.00 0.00 63 1008.5
20260904053902 28 113 8.0 8.0 0.00 0.00 0.00 63 1008.5
20260904051702 28 68 6.4 6.4 0.00 0.00 0.00 65 1008.1
20260904050402 28 90 3.2 3.2 0.00 0.00 0.00 65 1008.1
20260904045402 28 338 3.2 4.8 0.00 0.00 0.05 65 1008.1
20260904044402 28 45 6.4 6.4 0.00 0.00 0.05 65 1008.1
20260904041903 28 180 1.6 3.2 0.00 0.00 0.05 63 1008.5
20260904035602 29 248 4.8 4.8 0.00 0.00 0.05 63 1008.1
20260904034402 29 180 3.2 16.1 0.00 0.00 0.05 63 1008.1
20260904033202 29 338 4.8 4.8 0.00 0.00 0.05 63 1008.1
20260904031702 30 180 4.8 4.8 0.00 0.00 0.05 63 1008.1
20260904025902 30 113 3.2 9.7 0.00 0.00 0.05 63 1008.1
20260904024702 30 45 4.8 4.8 0.00 0.00 0.05 63 1007.8
20260904023602 30 225 4.8 6.4 0.00 0.00 0.05 63 1007.8
20260904022501 30 270 8.0 8.0 0.00 0.00 0.05 63 1008.1
20260904021102 30 248 0.0 4.8 0.00 0.00 0.05 61 1007.8
20260904015903 30 45 4.8 4.8 0.00 0.00 0.05 61 1007.5
20260904011302 31 270 1.6 3.2 0.00 0.00 0.05 61 1007.5
20260904004402 32 315 3.2 3.2 0.00 0.00 0.05 60 1007.1
20260904003202 32 45 8.0 8.0 0.00 0.00 0.05 58 1007.1
20260904002102 32 45 3.2 6.4 0.00 0.00 0.05 58 1006.8
20260903235202 33 270 3.2 4.8 0.00 0.00 0.05 55 1006.8
20260903234002 33 0 8.0 8.0 0.00 0.00 0.05 54 1006.8
20260903232703 36 248 11.3 11.3 0.00 0.00 0.05 51 1006.8
20260903174202 31 225 11.3 11.3 0.00 0.00 0.05 61 1008.5
20260903172503 30 225 4.8 4.8 0.00 0.00 0.05 63 1008.5
20260903153903 27 225 8.0 8.0 0.00 0.00 0.05 74 1008.5
20260903131102 23 248 0.0 0.0 0.00 0.00 0.05 86 1008.8
20260903130003 23 270 0.0 0.0 0.05 0.00 0.05 86 1009.1
20260903125002 24 180 0.0 0.0 0.05 0.00 0.05 81 1009.1
20260903114302 25 135 3.2 3.2 0.00 0.00 0.00 75 1008.8
20260903113102 25 158 0.0 0.0 0.00 0.00 0.00 76 1008.8
20260903110402 25 113 1.6 1.6 0.00 0.00 0.00 74 1008.5
20260903105305 25 158 0.0 1.6 0.00 0.00 0.00 76 1008.5
20260903104102 25 135 0.0 0.0 0.00 0.00 0.00 78 1008.8
20260903103002 25 135 0.0 0.0 0.00 0.00 0.00 75 1009.1
20260903100802 26 135 9.7 9.7 0.00 0.00 0.00 65 1008.8
20260903095602 26 158 3.2 4.8 0.00 0.00 0.00 65 1008.5
20260903094502 26 135 1.6 6.4 0.00 0.00 0.00 65 1008.5
20260903093302 26 158 4.8 9.7 0.00 0.00 0.00 65 1008.5
20260903092102 27 248 1.6 6.4 0.00 0.00 0.00 65 1008.1
20260903091002 27 180 4.8 4.8 0.00 0.00 0.00 65 1008.1
20260903084803 27 158 6.4 6.4 0.00 0.00 0.00 63 1008.5
20260903083703 27 225 3.2 4.8 0.00 0.00 0.00 63 1008.1
20260903082602 27 113 4.8 8.0 0.00 0.00 0.00 63 1008.5